Location: Unspecified
(43.4680°N, 87.1740°E)
Time: 18:03:29
(UTC+00:00)

ISS - Pass Details

Date: 01 October 2021
Orbit: 417 x 423 km, 51.6° (Epoch: 28 October)

Event Time Altitude Azimuth Distance (km) Brightness Sun altitude
Rises 13:38:10 0° 303° (WNW) 2,367 1.4 -19.8°
Reaches altitude 10° 13:40:17 10° 307° (NW) 1,502 0.0 -20.2°
Enters shadow 13:43:19 59° 357° (N) 488 -3.5 -20.7°
